CW8593 Weather Reports


Display with metric or nautical units.
time (UTC)temp
F
wind
direction
speed
MPH
gust
MPH
rain 1hr
in
rain 24hr
in
rain mn
in
humidity
%
barometer
mb
20150828000708 73 211 0.0 0.0 0.00 0.00 0.00 82 1015.4
20150828000208 73 211 0.0 0.0 0.00 0.00 0.00 82 1015.4
20150827235208 73 211 0.0 0.0 0.00 0.00 0.00 82 1015.4
20150827233209 73 211 0.0 0.0 0.00 0.00 0.00 82 1015.4
20150827232708 73 211 0.0 2.0 0.00 0.00 0.00 81 1015.4
20150827232208 73 211 2.0 3.0 0.00 0.00 0.00 80 1015.4
20150827231708 74 211 0.0 0.0 0.00 0.00 0.00 80 1015.4
20150827230207 74 211 0.0 0.0 0.00 0.00 0.00 79 1015.4
20150827225708 74 211 0.0 0.0 0.00 0.00 0.00 78 1015.4
20150827224708 74 211 0.0 2.0 0.00 0.00 0.00 78 1015.4
20150827224208 75 211 0.0 2.0 0.00 0.00 0.00 78 1015.4
20150827223708 75 211 0.0 0.0 0.00 0.00 0.00 78 1015.4
20150827223208 75 211 0.0 1.0 0.00 0.00 0.00 78 1015.4
20150827222708 75 211 0.0 0.0 0.00 0.00 0.00 78 1015.4
20150827222208 75 211 0.0 0.0 0.00 0.00 0.00 79 1015.4
20150827221207 74 211 0.0 1.0 0.00 0.00 0.00 79 1015.4
20150827220708 74 211 0.0 0.0 0.00 0.00 0.00 79 1015.4
20150827220208 75 211 0.0 0.0 0.00 0.00 0.00 79 1015.4
20150827215708 75 211 0.0 0.0 0.00 0.00 0.00 79 1015.4
20150827215208 75 211 0.0 0.0 0.00 0.00 0.00 79 1015.4
20150827214708 75 211 0.0 0.0 0.00 0.00 0.00 79 1015.4
20150827213207 75 211 0.0 0.0 0.00 0.00 0.00 79 1015.4
20150827211708 75 211 0.0 0.0 0.00 0.00 0.00 79 1015.4
20150827210708 75 211 0.0 1.0 0.00 0.00 0.00 80 1015.3
20150827205708 76 211 0.0 1.0 0.00 0.00 0.00 80 1015.3
20150827205208 76 211 0.0 1.0 0.00 0.00 0.00 80 1015.3
20150827204208 76 211 0.0 3.0 0.00 0.00 0.00 80 1015.3
20150827203708 76 211 0.0 2.0 0.00 0.00 0.00 80 1015.3
20150827203208 76 211 0.0 0.0 0.00 0.00 0.00 80 1015.3
20150827202208 77 211 0.0 0.0 0.00 0.00 0.00 80 1015.3
20150827201708 77 211 0.0 1.0 0.00 0.00 0.00 80 1015.3
20150827201208 77 211 0.0 0.0 0.00 0.00 0.00 80 1015.3
20150827200208 77 211 2.0 6.0 0.00 0.00 0.00 80 1015.3
20150827195708 77 210 2.0 6.0 0.00 0.00 0.00 80 1015.3
20150827195208 77 210 2.0 6.0 0.00 0.00 0.00 80 1015.3
20150827194707 77 211 0.0 3.0 0.00 0.00 0.00 80 1015.3
20150827193708 77 211 1.0 3.0 0.00 0.00 0.00 80 1015.3
20150827192208 78 211 0.0 2.0 0.00 0.00 0.00 80 1015.3
20150827191707 78 211 2.0 3.0 0.00 0.00 0.00 80 1015.3
20150827190708 78 224 2.0 5.0 0.00 0.00 0.00 79 1015.3
20150827184708 78 215 1.0 6.0 0.00 0.00 0.00 78 1015.3
20150827184208 78 202 2.0 5.0 0.00 0.00 0.00 78 1015.3
20150827183707 78 242 0.0 8.0 0.00 0.00 0.00 78 1015.3
20150827183207 78 228 3.0 7.0 0.00 0.00 0.00 78 1015.3
20150827181707 79 199 2.0 9.0 0.00 0.00 0.00 78 1015.3
20150827180708 79 190 5.0 12.0 0.00 0.00 0.00 76 1015.3
20150827180208 79 185 6.0 12.0 0.00 0.00 0.00 75 1015.3
20150827175708 80 188 6.0 12.0 0.00 0.00 0.00 75 1015.3
20150827175207 80 191 6.0 9.0 0.00 0.00 0.00 74 1015.3
20150827174707 80 197 3.0 10.0 0.00 0.00 0.00 74 1015.3
20150827174208 80 190 5.0 10.0 0.00 0.00 0.00 74 1015.3
20150827173707 80 222 4.0 8.0 0.00 0.00 0.00 74 1015.3
20150827173207 80 196 6.0 10.0 0.00 0.00 0.00 74 1015.3
20150827172707 80 190 6.0 12.0 0.00 0.00 0.00 74 1015.3
20150827172208 80 193 6.0 12.0 0.00 0.00 0.00 74 1015.3
20150827171707 80 225 3.0 12.0 0.00 0.00 0.00 76 1015.3
20150827171207 79 204 9.0 15.0 0.00 0.00 0.00 75 1015.3
20150827170709 79 192 10.0 16.0 0.00 0.00 0.00 75 1015.3
20150827170207 80 183 9.0 16.0 0.00 0.00 0.00 74 1015.3
20150827165707 80 197 6.0 14.0 0.00 0.00 0.00 74 1015.3
20150827165207 80 194 6.0 15.0 0.00 0.00 0.00 74 1015.3
20150827164707 80 218 7.0 17.0 0.00 0.00 0.00 74 1015.3
20150827162707 80 179 11.0 20.0 0.00 0.00 0.00 73 1015.3
20150827162207 80 184 9.0 20.0 0.00 0.00 0.00 74 1015.3
20150827160707 81 197 8.0 15.0 0.00 0.00 0.00 73 1015.3
20150827160207 81 212 6.0 20.0 0.00 0.00 0.00 74 1015.3
20150827155707 81 190 10.0 17.0 0.00 0.00 0.00 73 1015.3
20150827155207 81 195 6.0 17.0 0.00 0.00 0.00 73 1015.3
20150827154708 81 183 8.0 18.0 0.00 0.00 0.00 73 1015.3
20150827154207 81 174 9.0 17.0 0.00 0.00 0.00 73 1015.3
20150827153707 81 200 10.0 20.0 0.00 0.00 0.00 72 1015.3
20150827152707 81 194 10.0 18.0 0.00 0.00 0.00 72 1015.3
20150827152208 81 226 10.0 16.0 0.00 0.00 0.00 71 1015.3
20150827151708 81 212 9.0 17.0 0.00 0.00 0.00 71 1015.3
20150827151207 81 210 9.0 17.0 0.00 0.00 0.00 71 1015.3
20150827150707 81 208 10.0 16.0 0.00 0.00 0.00 70 1015.3
20150827150207 81 175 8.0 18.0 0.00 0.00 0.00 70 1015.3
20150827144706 81 189 8.0 15.0 0.00 0.00 0.00 73 1015.3
20150827143707 81 204 9.0 17.0 0.00 0.00 0.00 74 1015.3
20150827143207 81 176 7.0 12.0 0.00 0.00 0.00 73 1015.3
20150827142708 81 218 9.0 16.0 0.00 0.00 0.00 72 1015.3
20150827141207 81 176 6.0 14.0 0.00 0.00 0.00 75 1015.3
20150827140707 81 179 8.0 17.0 0.00 0.00 0.00 75 1015.3
20150827140207 81 200 12.0 20.0 0.00 0.00 0.00 75 1015.3
20150827135707 81 179 8.0 18.0 0.00 0.00 0.00 74 1015.3
20150827135207 82 199 6.0 17.0 0.00 0.00 0.00 72 1015.3
20150827134207 82 181 8.0 20.0 0.00 0.00 0.00 71 1015.3
20150827133707 81 200 6.0 20.0 0.00 0.00 0.00 72 1015.3
20150827133207 81 184 7.0 15.0 0.00 0.00 0.00 71 1015.3
20150827132207 81 182 10.0 17.0 0.00 0.00 0.00 72 1015.3
20150827131207 82 196 6.0 12.0 0.00 0.00 0.00 72 1015.3
20150827130207 81 174 5.0 12.0 0.00 0.00 0.00 73 1015.3
20150827125208 81 149 6.0 13.0 0.00 0.00 0.00 74 1015.3
20150827123708 81 210 7.0 16.0 0.00 0.00 0.00 74 1015.3
20150827123207 81 166 6.0 13.0 0.00 0.00 0.00 74 1015.3
20150827122707 81 203 6.0 14.0 0.00 0.00 0.00 74 1015.3
20150827122207 80 159 5.0 14.0 0.00 0.00 0.00 76 1015.3
20150827121207 80 188 9.0 18.0 0.00 0.00 0.00 76 1015.3
20150827120707 80 152 9.0 16.0 0.00 0.00 0.00 75 1015.3
20150827120207 80 172 6.0 17.0 0.00 0.00 0.00 75 1015.3
20150827115707 81 161 6.0 17.0 0.00 0.00 0.00 75 1015.3
20150827114207 81 195 7.0 15.0 0.00 0.00 0.00 74 1015.3
20150827113707 81 187 6.0 16.0 0.00 0.00 0.00 75 1015.3
20150827112207 81 172 8.0 16.0 0.00 0.00 0.00 74 1015.3
20150827111707 81 194 8.0 13.0 0.00 0.00 0.00 73 1015.3
20150827111206 82 187 7.0 14.0 0.00 0.00 0.00 73 1015.3
20150827110207 81 211 5.0 12.0 0.00 0.00 0.00 74 1015.3
20150827105707 81 206 9.0 14.0 0.00 0.00 0.00 74 1015.3
20150827105207 81 145 7.0 12.0 0.00 0.00 0.00 75 1015.3
20150827104707 80 187 7.0 16.0 0.00 0.00 0.00 75 1015.3
20150827103707 81 153 7.0 14.0 0.00 0.00 0.00 75 1015.3
20150827103207 80 188 6.0 15.0 0.00 0.00 0.00 76 1015.3
20150827102707 81 171 9.0 16.0 0.00 0.00 0.00 75 1015.3
20150827102207 80 211 5.0 16.0 0.00 0.00 0.00 76 1015.3
20150827101706 80 200 9.0 17.0 0.00 0.00 0.00 76 1015.3
20150827100706 80 193 6.0 12.0 0.00 0.00 0.00 76 1015.3
20150827094706 81 139 5.0 12.0 0.00 0.00 0.00 75 1015.3
20150827093707 80 198 6.0 12.0 0.00 0.00 0.00 77 1015.3
20150827092707 80 160 6.0 10.0 0.00 0.00 0.00 76 1015.3
20150827092206 80 147 6.0 12.0 0.00 0.00 0.00 77 1015.3
20150827091707 80 214 5.0 12.0 0.00 0.00 0.00 77 1015.3
20150827091207 79 208 7.0 12.0 0.00 0.00 0.00 77 1015.3
20150827090706 80 163 5.0 12.0 0.00 0.00 0.00 77 1015.3
20150827090207 80 161 6.0 12.0 0.00 0.00 0.00 76 1015.3
20150827085707 80 167 5.0 12.0 0.00 0.00 0.00 76 1015.3
20150827085207 80 162 3.0 10.0 0.00 0.00 0.00 77 1015.3
20150827084207 80 151 5.0 12.0 0.00 0.00 0.00 77 1015.3
20150827083707 79 162 6.0 12.0 0.00 0.00 0.00 77 1015.3
20150827082707 80 146 4.0 9.0 0.00 0.00 0.00 76 1015.3
20150827081207 80 153 2.0 7.0 0.00 0.00 0.00 78 1015.2
20150827080707 79 159 2.0 7.0 0.00 0.00 0.00 78 1015.2
20150827080207 79 171 2.0 7.0 0.00 0.00 0.00 77 1015.2
20150827075707 79 147 5.0 7.0 0.00 0.00 0.00 76 1015.2
20150827074707 79 150 2.0 6.0 0.00 0.00 0.00 77 1015.4
20150827074207 79 138 4.0 7.0 0.00 0.00 0.00 76 1015.4
20150827073707 79 229 1.0 3.0 0.00 0.00 0.00 77 1015.4
20150827073207 79 229 0.0 2.0 0.00 0.00 0.00 79 1015.4
20150827071207 77 229 0.0 1.0 0.00 0.00 0.00 81 1015.4
20150827070207 77 229 0.0 0.0 0.00 0.00 0.00 81 1015.4
20150827065707 77 229 0.0 0.0 0.00 0.00 0.00 81 1015.4
20150827065207 77 229 0.0 0.0 0.00 0.00 0.00 82 1015.4
20150827064707 77 229 0.0 0.0 0.00 0.00 0.00 83 1015.4
20150827064208 76 229 0.0 0.0 0.00 0.00 0.00 84 1015.4
20150827063707 76 229 0.0 0.0 0.00 0.00 0.00 84 1015.4
20150827063206 76 229 0.0 0.0 0.00 0.00 0.00 85 1015.4
20150827062707 76 229 0.0 0.0 0.00 0.00 0.00 86 1015.4
20150827062206 75 229 0.0 0.0 0.00 0.00 0.00 87 1015.4
20150827061707 75 229 0.0 0.0 0.00 0.00 0.00 87 1015.4
20150827060707 74 229 0.0 0.0 0.00 0.00 0.00 88 1015.4
20150827060206 74 229 0.0 0.0 0.00 0.00 0.00 89 1015.4
20150827055707 73 229 0.0 0.0 0.00 0.00 0.00 89 1015.4
20150827055207 73 229 0.0 0.0 0.00 0.00 0.00 88 1015.4
20150827054706 73 229 0.0 0.0 0.00 0.00 0.00 88 1015.4
20150827054207 73 229 0.0 0.0 0.00 0.00 0.00 88 1015.4
20150827053707 73 229 0.0 0.0 0.00 0.00 0.00 88 1015.4
20150827053207 73 229 0.0 0.0 0.00 0.00 0.00 88 1015.4
20150827052206 73 229 0.0 0.0 0.00 0.00 0.00 88 1015.4
20150827051706 73 229 0.0 0.0 0.00 0.00 0.00 88 1015.4
20150827051206 73 229 0.0 0.0 0.00 0.00 0.00 88 1015.4
20150827050707 73 229 0.0 0.0 0.00 0.00 0.00 88 1015.4
20150827050207 73 229 0.0 0.0 0.00 0.00 0.00 88 1015.4
20150827044706 73 229 0.0 0.0 0.00 0.00 0.00 87 1015.4
20150827044207 73 229 0.0 0.0 0.00 0.00 0.00 87 1015.4
20150827043706 73 229 0.0 0.0 0.00 0.00 0.00 87 1015.4
20150827043206 73 229 0.0 0.0 0.00 0.00 0.00 87 1015.4
20150827042707 73 229 0.0 1.0 0.00 0.00 0.00 87 1015.4
20150827042207 73 229 0.0 1.0 0.00 0.00 0.00 87 1015.4
20150827041707 73 229 0.0 0.0 0.00 0.00 0.00 86 1015.4
20150827041207 73 229 0.0 1.0 0.00 0.00 0.00 86 1015.4
20150827040207 73 229 0.0 0.0 0.00 0.00 0.00 86 1015.4
20150827035707 73 229 0.0 0.0 0.00 0.00 0.00 86 1015.4
20150827035207 73 229 0.0 0.0 0.00 0.00 0.00 86 1015.4
20150827034207 73 229 0.0 0.0 0.00 0.00 0.00 86 1015.4
20150827033706 73 229 0.0 0.0 0.00 0.00 0.00 86 1015.4
20150827032707 73 229 0.0 0.0 0.00 0.00 0.00 86 1015.4
20150827032207 73 229 0.0 0.0 0.00 0.00 0.00 86 1015.4
20150827031706 73 229 0.0 0.0 0.00 0.00 0.00 86 1015.4
20150827031207 73 229 0.0 0.0 0.00 0.00 0.00 86 1015.4
20150827030707 73 229 0.0 0.0 0.00 0.00 0.00 86 1015.4
20150827030207 73 229 0.0 0.0 0.00 0.00 0.00 85 1015.4
20150827025707 73 229 0.0 0.0 0.00 0.00 0.00 85 1015.4
20150827025206 73 229 0.0 0.0 0.00 0.00 0.00 85 1015.4
20150827024207 73 229 0.0 0.0 0.00 0.00 0.00 85 1015.4
20150827023706 73 229 0.0 0.0 0.00 0.00 0.00 85 1015.4
20150827022707 73 229 0.0 0.0 0.00 0.00 0.00 85 1015.4
20150827022207 73 229 0.0 0.0 0.00 0.00 0.00 85 1015.4
20150827021708 73 229 0.0 0.0 0.00 0.00 0.00 85 1015.4
20150827021206 73 229 0.0 0.0 0.00 0.00 0.00 85 1015.4
20150827020706 73 229 0.0 0.0 0.00 0.00 0.00 85 1015.4
20150827020207 74 229 0.0 0.0 0.00 0.00 0.00 85 1015.4
20150827015707 74 229 0.0 0.0 0.00 0.00 0.00 85 1015.4
20150827015207 74 229 0.0 0.0 0.00 0.00 0.00 84 1015.4
20150827014207 74 229 0.0 0.0 0.00 0.00 0.00 84 1015.4
20150827013206 74 229 0.0 0.0 0.00 0.00 0.00 84 1015.4
20150827012706 74 229 0.0 0.0 0.00 0.00 0.00 84 1015.4
20150827012207 74 229 0.0 0.0 0.00 0.00 0.00 84 1015.4
20150827011707 74 229 0.0 0.0 0.00 0.00 0.00 84 1015.4
20150827011206 74 229 0.0 1.0 0.00 0.00 0.00 84 1015.4
20150827010207 73 229 0.0 0.0 0.00 0.00 0.00 84 1015.4
20150827005708 73 229 0.0 0.0 0.00 0.00 0.00 84 1015.4
20150827004707 73 229 0.0 0.0 0.00 0.00 0.00 85 1015.4
20150827003706 73 229 0.0 0.0 0.00 0.00 0.00 85 1015.4
20150827002707 73 229 0.0 0.0 0.00 0.00 0.00 85 1015.4
20150827001707 73 229 0.0 0.0 0.00 0.00 0.00 85 1015.4